[[{"header":{"parameterUnit":"m.s-1","parameterCategory":1,"la1":30.2991,"la2":30.254,"lo1":-89.0895,"lo2":-89.0444,"dy":0.0017,"dx":0.0017,"nx":28,"ny":28,"refTime":"2023-09-21T21:00:00:Z","depth":0,"parameterNumber":2,"parameterNumberName":"U-component_of_WINDS"},"data":[0,0,0,0,0,0,0,0,0,0,0,0,0,0,0,0,0,0,0,0,0,0,0,0,0,0,0,0,0,0,0,0,0,0,0,0,0,0,0,0,0,0,0,0,0,0,0,0,0,0,0,0,0,0,0,0,0,0,-1.5572,-1.5572,0,-1.5586,-1.5586,-1.5586,-1.5542,-1.554,-1.5539,-1.5538,-1.5551,-1.5552,-1.5554,0,0,0,0,0,0,0,0,0,0,0,0,0,-1.5507,-1.5508,-1.5572,-1.5572,-1.5572,-1.5586,-1.5586,-1.5586,-1.5542,-1.554,-1.5539,-1.5537,-1.555,-1.5552,-1.5554,0,0,0,0,0,0,0,0,0,0,0,0,0,-1.5529,-1.5509,-1.5572,-1.5552,-1.555,-1.5586,-1.5586,-1.5586,-1.5542,-1.554,-1.5538,-1.5536,-1.555,-1.5552,-1.5554,-1.5609,0,0,-1.5562,-1.5563,0,0,0,0,0,0,0,0,-1.5528,-1.5532,-1.5555,-1.5553,-1.5552,-1.556,-1.5567,-1.5594,-1.5543,-1.5545,-1.5538,-1.5535,-1.5555,-1.5557,-1.5564,-1.561,-1.561,-1.5562,-1.5563,-1.5564,-1.5565,0,0,0,0,0,0,0,-1.5527,-1.5531,-1.5577,-1.5555,-1.5553,-1.5542,-1.5543,-1.5572,-1.5561,-1.5545,-1.5542,-1.5544,-1.5554,-1.5562,-1.5564,-1.5611,-1.5562,-1.5564,-1.5565,-1.5566,-1.5702,-1.5705,0,0,0,0,0,0,-1.5528,-1.553,-1.5577,-1.5578,-1.5535,-1.5545,-1.5546,-1.5559,-1.5561,-1.5559,-1.5546,-1.5542,-1.5559,-1.5561,-1.5564,-1.563,-1.5564,-1.5567,-1.5568,-1.57,-1.5703,-1.5705,0,0,0,0,0,0,-1.5527,-1.5532,-1.5576,-1.5553,-1.5558,-1.5548,-1.5563,-1.5561,-1.5568,-1.5562,-1.5559,-1.5556,-1.5557,-1.5561,-1.5599,-1.5629,-1.5568,-1.557,-1.5698,-1.5701,-1.5704,-1.576,0,0,0,0,0,0,-1.5525,-1.5532,-1.5553,-1.5554,-1.5559,-1.5611,-1.5565,-1.5562,-1.5573,-1.5568,-1.557,-1.5569,-1.5556,-1.5595,-1.5601,-1.5632,-1.5572,-1.5695,-1.5699,-1.5703,-1.5756,-1.5765,-1.5773,0,0,0,0,0,-1.5523,-1.5568,-1.5555,-1.5561,-1.5586,-1.5613,-1.5616,-1.56,-1.5575,-1.5596,-1.5592,-1.5569,-1.5625,-1.5599,-1.5606,-1.5637,-1.5693,-1.5698,-1.5703,-1.5752,-1.5763,-1.5773,0,0,0,0,0,0,-1.5572,-1.5568,-1.5553,-1.56,-1.5607,-1.5605,-1.5632,-1.5613,-1.5627,-1.5622,-1.5602,-1.5603,-1.5644,-1.5644,-1.5616,-1.5691,-1.5654,-1.5661,-1.569,-1.57,-1.5709,-1.5709,-1.5574,0,0,0,0,0,-1.5588,-1.5611,-1.5606,-1.5648,-1.5653,-1.5642,-1.5653,-1.564,-1.5647,-1.5649,-1.5648,-1.5654,-1.5673,-1.5687,-1.5704,-1.5755,-1.5755,-1.5779,-1.5788,-1.5795,-1.5802,-1.5829,-1.584,-1.5721,-1.5721,-1.5721,0,0,-1.5622,-1.5623,-1.5639,-1.5658,-1.5662,-1.5686,-1.5645,-1.5672,-1.5689,-1.5653,-1.5689,-1.5688,-1.5694,-1.5739,-1.5759,-1.574,-1.5834,-1.5802,-1.5807,-1.581,-1.5835,-1.5847,-1.5857,-1.5725,-1.5724,-1.5724,0,0,-1.5697,-1.57,-1.5735,-1.574,-1.5747,-1.5739,-1.5747,-1.5748,-1.5746,-1.5782,-1.5755,-1.5775,-1.5809,-1.5814,-1.5822,-1.5898,-1.5877,-1.5904,-1.595,-1.5977,-1.5986,-1.5995,-1.6023,-1.6033,-1.5909,-1.591,-1.591,0,-1.5739,-1.5774,-1.5756,-1.5785,-1.5795,-1.5763,-1.5799,-1.5804,-1.5816,-1.5823,-1.5802,-1.5844,-1.5845,-1.5891,-1.591,-1.5916,-1.5926,-1.5904,-1.5986,-1.5995,-1.6002,-1.6029,-1.6039,-1.5913,-1.5913,-1.5912,-1.5912,0,-1.5826,-1.5851,-1.5879,-1.5891,-1.5904,-1.5936,-1.5922,-1.5937,-1.5923,-1.5917,-1.5954,-1.5954,-1.5971,-1.5981,-1.5967,-1.6025,-1.6014,-1.599,-1.5953,-1.6017,-1.6042,-1.6052,-1.5918,-1.5916,-1.5915,-1.5915,0,0,-1.5934,-1.5935,-1.5946,-1.5951,-1.5956,-1.5975,-1.6005,-1.6022,-1.6035,-1.6044,-1.6069,-1.6098,-1.6076,-1.6084,-1.607,-1.6094,-1.6155,-1.6067,-1.6067,-1.6085,-1.622,-1.6239,-1.6251,-1.6141,-1.6143,-1.6144,-1.622,0,-1.6008,-1.6062,-1.6046,-1.6099,-1.6122,-1.6092,-1.6119,-1.6124,-1.6119,-1.6138,-1.6131,-1.6153,-1.6121,-1.6126,-1.6148,-1.6143,-1.6182,-1.6137,-1.6165,-1.6166,-1.6167,-1.6264,-1.6284,-1.6356,-1.6229,-1.6231,-1.6232,0,-1.6103,-1.6116,-1.6172,-1.6173,-1.6182,-1.6206,-1.622,-1.6238,-1.6243,-1.6238,-1.6247,-1.6228,-1.6258,-1.622,-1.6261,-1.6231,-1.6241,-1.624,-1.6243,-1.6246,-1.6205,-1.6272,-1.6378,-1.639,-1.6247,-1.6246,-1.6245,0,-1.6178,-1.6209,-1.6247,-1.6252,-1.6253,-1.6271,-1.6273,-1.6276,-1.6287,-1.6299,-1.6306,-1.6321,-1.633,-1.6341,-1.6327,-1.6301,-1.6371,-1.6331,-1.6368,-1.6368,-1.6386,-1.6385,-1.6497,-1.6389,-1.6389,-1.6389,-1.6389,0,-1.6264,-1.63,-1.6281,-1.6304,-1.6343,-1.6324,-1.6363,-1.636,-1.6364,-1.6386,-1.6359,-1.6381,-1.636,-1.6379,-1.6368,-1.6404,-1.6408,-1.6405,-1.6402,-1.6408,-1.6409,-1.6416,-1.6411,-1.6392,-1.6391,-1.6391,-1.639,0,-1.6356,-1.6344,-1.6383,-1.6381,-1.6381,-1.641,-1.6408,-1.6429,-1.6422,-1.645,-1.6456,-1.6445,-1.6466,-1.6452,-1.6474,-1.6466,-1.6514,-1.6503,-1.6513,-1.6511,-1.6548,-1.6546,-1.667,-1.6686,-1.6567,-1.6568,-1.6569,0,-1.6413,-1.644,-1.644,-1.6453,-1.6456,-1.6478,-1.6489,-1.647,-1.6483,-1.6491,-1.6511,-1.653,-1.6545,-1.658,-1.6574,-1.659,-1.658,-1.6623,-1.6583,-1.6589,-1.6583,-1.6582,-1.6585,-1.6632,-1.6633,-1.6634,-1.6635,0,-1.6515,-1.6508,-1.6525,-1.6541,-1.6555,-1.6566,-1.6575,-1.6587,-1.6568,-1.6583,-1.6605,-1.6616,-1.6638,-1.6658,-1.6671,-1.6672,-1.6651,-1.6647,-1.6657,-1.6665,-1.667,-1.6669,-1.6537,-1.6645,-1.6644,-1.6643,-1.6643,-1.6643,-1.6592,-1.6615,-1.6619,-1.6639,-1.6643,-1.6652,-1.6673,-1.6667,-1.6685,-1.6702,-1.6689,-1.6715,-1.6719,-1.6735,-1.6739,-1.6759,-1.6741,-1.6755,-1.6759,-1.6763,-1.6769,-1.6665,-1.6761,-1.676,-1.676,-1.676,-1.676,0,-1.6695,-1.6695,-1.6714,-1.6727,-1.6743,-1.6721,-1.6729,-1.6744,-1.6768,-1.6773,-1.6788,-1.6813,-1.6831,-1.6826,-1.6842,-1.6859,-1.685,-1.6865,-1.6864,-1.6865,-1.6782,-1.6773,-1.6872,-1.6872,-1.6872,-1.6872,-1.6872,-1.6872,-1.675,-1.6788,-1.6781,-1.682,-1.682,-1.6846,-1.6853,-1.6861,-1.6865,-1.6894,-1.6909,-1.6906,-1.6907,-1.6923,-1.6939,-1.6937,-1.6945,-1.6963,-1.6958,-1.6881,-1.687,-1.686,-1.6851,-1.6965,-1.6965,-1.7039,-1.7039,-1.704]},{"header":{"parameterUnit":"m.s-1","parameterCategory":1,"la1":30.2991,"la2":30.254,"lo1":-89.0895,"lo2":-89.0444,"dy":0.0017,"dx":0.0017,"nx":28,"ny":28,"refTime":"2023-09-21T21:00:00:Z","depth":0,"parameterNumber":3,"parameterNumberName":"V-component_of_WINDS"},"data":[0,0,0,0,0,0,0,0,0,0,0,0,0,0,0,0,0,0,0,0,0,0,0,0,0,0,0,0,0,0,0,0,0,0,0,0,0,0,0,0,0,0,0,0,0,0,0,0,0,0,0,0,0,0,0,0,0,0,-2.898,-2.898,0,-2.8994,-2.8994,-2.8994,-2.8956,-2.8955,-2.8954,-2.8953,-2.8965,-2.8966,-2.8967,0,0,0,0,0,0,0,0,0,0,0,0,0,-2.8917,-2.8919,-2.898,-2.898,-2.898,-2.8994,-2.8994,-2.8994,-2.8957,-2.8955,-2.8954,-2.8952,-2.8964,-2.8966,-2.8968,0,0,0,0,0,0,0,0,0,0,0,0,0,-2.8939,-2.8919,-2.898,-2.8963,-2.8962,-2.8994,-2.8994,-2.8994,-2.8957,-2.8955,-2.8953,-2.8952,-2.8964,-2.8966,-2.8968,-2.9016,0,0,-2.8974,-2.8975,0,0,0,0,0,0,0,0,-2.8938,-2.8942,-2.8965,-2.8964,-2.8963,-2.8972,-2.8976,-2.9001,-2.8957,-2.8959,-2.8953,-2.8951,-2.8968,-2.897,-2.8976,-2.9016,-2.9017,-2.8974,-2.8976,-2.8977,-2.8977,0,0,0,0,0,0,0,-2.8937,-2.8941,-2.8985,-2.8966,-2.8964,-2.8954,-2.8955,-2.8981,-2.8973,-2.8958,-2.8956,-2.8958,-2.8967,-2.8974,-2.8976,-2.9017,-2.8974,-2.8976,-2.8978,-2.8978,-2.9098,-2.91,0,0,0,0,0,0,-2.8938,-2.894,-2.8985,-2.8985,-2.8946,-2.8957,-2.8958,-2.897,-2.8973,-2.8971,-2.896,-2.8956,-2.8972,-2.8974,-2.8977,-2.9034,-2.8977,-2.8979,-2.898,-2.9096,-2.9099,-2.9101,0,0,0,0,0,0,-2.8936,-2.8942,-2.8984,-2.8962,-2.8967,-2.8959,-2.8974,-2.8972,-2.8979,-2.8974,-2.8972,-2.8969,-2.897,-2.8974,-2.9007,-2.9034,-2.8979,-2.8981,-2.9094,-2.9097,-2.91,-2.9149,0,0,0,0,0,0,-2.8935,-2.8942,-2.8961,-2.8963,-2.8968,-2.9015,-2.8976,-2.8973,-2.8983,-2.8979,-2.8981,-2.898,-2.8969,-2.9004,-2.9009,-2.9036,-2.8983,-2.9091,-2.9095,-2.9099,-2.9145,-2.9153,-2.916,0,0,0,0,0,-2.8933,-2.8973,-2.8962,-2.8967,-2.8991,-2.9017,-2.9019,-2.9007,-2.8985,-2.9004,-2.9,-2.898,-2.903,-2.9008,-2.9013,-2.9041,-2.909,-2.9094,-2.9098,-2.9141,-2.9151,-2.916,0,0,0,0,0,0,-2.8973,-2.8973,-2.896,-2.9003,-2.901,-2.901,-2.9033,-2.9018,-2.9031,-2.9026,-2.9009,-2.901,-2.9046,-2.9046,-2.9022,-2.9088,-2.9056,-2.9062,-2.9087,-2.9096,-2.9104,-2.9104,-2.8985,0,0,0,0,0,-2.8987,-2.9008,-2.9007,-2.9044,-2.9048,-2.904,-2.9051,-2.9041,-2.9047,-2.905,-2.9049,-2.9055,-2.9072,-2.9084,-2.9099,-2.9144,-2.9145,-2.9166,-2.9174,-2.918,-2.9185,-2.921,-2.922,-2.9115,-2.9115,-2.9115,0,0,-2.9015,-2.9018,-2.9032,-2.9052,-2.9057,-2.9079,-2.9043,-2.9068,-2.9084,-2.9053,-2.9085,-2.9085,-2.9091,-2.913,-2.9148,-2.9132,-2.9214,-2.9185,-2.9191,-2.9193,-2.9216,-2.9226,-2.9235,-2.9118,-2.9117,-2.9117,0,0,-2.908,-2.9083,-2.9116,-2.9121,-2.9129,-2.9124,-2.9132,-2.9134,-2.9133,-2.9165,-2.9143,-2.9161,-2.9191,-2.9197,-2.9203,-2.927,-2.9253,-2.9275,-2.9316,-2.9341,-2.9349,-2.9356,-2.9382,-2.9391,-2.9281,-2.9281,-2.9281,0,-2.9114,-2.9148,-2.9134,-2.9161,-2.9171,-2.9145,-2.9177,-2.9183,-2.9195,-2.9202,-2.9184,-2.9221,-2.9223,-2.9265,-2.9281,-2.9287,-2.9295,-2.9276,-2.9349,-2.9356,-2.9363,-2.9387,-2.9396,-2.9284,-2.9283,-2.9283,-2.9283,0,-2.919,-2.9214,-2.9239,-2.9253,-2.9265,-2.9295,-2.9285,-2.9299,-2.9287,-2.9284,-2.9317,-2.9318,-2.9334,-2.9343,-2.9331,-2.9383,-2.9373,-2.9352,-2.932,-2.9376,-2.9398,-2.9407,-2.9288,-2.9287,-2.9286,-2.9285,0,0,-2.9281,-2.9288,-2.9297,-2.9304,-2.9311,-2.9329,-2.9357,-2.9373,-2.9386,-2.9395,-2.9419,-2.9444,-2.9426,-2.9434,-2.9422,-2.9443,-2.9498,-2.942,-2.942,-2.9436,-2.9557,-2.9574,-2.9585,-2.9486,-2.9488,-2.9489,-2.9557,0,-2.9345,-2.9396,-2.9385,-2.9434,-2.9456,-2.9432,-2.9456,-2.9463,-2.946,-2.9478,-2.9473,-2.9493,-2.9466,-2.9471,-2.9491,-2.9488,-2.9523,-2.9482,-2.9508,-2.9509,-2.9509,-2.9596,-2.9614,-2.9678,-2.9565,-2.9567,-2.9568,0,-2.9428,-2.9442,-2.9494,-2.9499,-2.9508,-2.953,-2.9545,-2.9562,-2.9569,-2.9566,-2.9575,-2.956,-2.9587,-2.9554,-2.9592,-2.9565,-2.9574,-2.9574,-2.9576,-2.958,-2.9543,-2.9603,-2.9698,-2.9708,-2.9581,-2.958,-2.9579,0,-2.9491,-2.9522,-2.9558,-2.9564,-2.957,-2.9587,-2.959,-2.9595,-2.9606,-2.9619,-2.9626,-2.9641,-2.9649,-2.9661,-2.965,-2.9627,-2.969,-2.9656,-2.9689,-2.9689,-2.9704,-2.9704,-2.9804,-2.9708,-2.9708,-2.9708,-2.9707,0,-2.9565,-2.9599,-2.9587,-2.9609,-2.9645,-2.9632,-2.9668,-2.9667,-2.9673,-2.9694,-2.9672,-2.9693,-2.9676,-2.9695,-2.9686,-2.972,-2.9723,-2.9721,-2.9719,-2.9724,-2.9725,-2.9732,-2.9728,-2.971,-2.971,-2.9709,-2.9709,0,-2.9642,-2.9636,-2.9674,-2.9676,-2.9678,-2.9705,-2.9707,-2.9727,-2.9723,-2.975,-2.9755,-2.9748,-2.9769,-2.9759,-2.978,-2.9775,-2.9819,-2.9809,-2.9817,-2.9815,-2.9849,-2.9847,-2.9958,-2.9973,-2.9866,-2.9867,-2.9868,0,-2.9691,-2.9717,-2.9723,-2.9736,-2.9742,-2.9763,-2.9775,-2.9762,-2.9775,-2.9785,-2.9804,-2.9823,-2.9839,-2.9873,-2.9869,-2.9886,-2.9878,-2.9915,-2.988,-2.9885,-2.988,-2.988,-2.9883,-2.9923,-2.9924,-2.9925,-2.9926,0,-2.9779,-2.9775,-2.9794,-2.9812,-2.9827,-2.984,-2.9851,-2.9862,-2.985,-2.9865,-2.9887,-2.9899,-2.9922,-2.9941,-2.9956,-2.9958,-2.994,-2.9937,-2.9946,-2.9953,-2.9957,-2.9957,-2.9838,-2.9935,-2.9934,-2.9933,-2.9933,-2.9933,-2.9845,-2.9867,-2.9876,-2.9897,-2.9904,-2.9915,-2.9935,-2.9934,-2.9952,-2.9971,-2.9961,-2.9987,-2.9993,-3.0011,-3.0016,-3.0036,-3.002,-3.0033,-3.0036,-3.004,-3.0045,-2.9953,-3.0038,-3.0037,-3.0037,-3.0037,-3.0037,0,-2.9934,-2.9938,-2.9958,-2.9975,-2.9992,-2.9975,-2.9986,-3.0001,-3.0025,-3.0033,-3.0049,-3.0074,-3.0093,-3.0091,-3.0109,-3.0125,-3.0118,-3.013,-3.013,-3.0131,-3.0057,-3.0049,-3.0136,-3.0136,-3.0136,-3.0136,-3.0136,-3.0136,-2.9982,-3.0019,-3.0016,-3.0056,-3.0059,-3.0086,-3.0094,-3.0104,-3.0111,-3.0141,-3.0157,-3.0156,-3.016,-3.0178,-3.0195,-3.0194,-3.0202,-3.0218,-3.0214,-3.0145,-3.0136,-3.0126,-3.0119,-3.0219,-3.022,-3.0286,-3.0287,-3.0288]}]]